Location: Unspecified
(0.0000°N, 0.0000°E)
Time: 08:05:01
(UTC+00:00)

SJ-6F - Pass Details

Date: 07 August 2021
Orbit: 570 x 593 km, 97.8° (Epoch: 27 September)

Event Time Altitude Azimuth Distance (km) Brightness Sun altitude
Rises 04:25:51 0° 1° (N) 2,766 8.1 -23.9°
Reaches altitude 10° 04:28:03 10° 355° (N) 1,869 7.1 -23.4°
Enters shadow 04:30:13 28° 336° (NNW) 1,082 5.7 -22.9°
